Location: Équennes
(49.7375°N, 1.9622°E)
Time: 01:39:43
(UTC+00:00)

Cosmos 1269 Rocket - Pass Details

Date: 28 January 2023
Orbit: 771 x 778 km, 74.1° (Epoch: 31 March)

Event Time Altitude Azimuth Distance (km) Brightness Sun altitude
Rises 17:36:49 0° 208° (SSW) 3,237 8.0 -9.3°
Reaches altitude 10° 17:39:12 10° 211° (SSW) 2,315 7.2 -9.7°
Maximum altitude 17:44:27 72° 296° (WNW) 818 4.3 -10.5°
Drops below altitude 10° 17:49:46 10° 21° (NNE) 2,336 6.2 -11.3°
Enters shadow 17:52:09 - 23° (NNE) 3,259 6.9 -11.7°
